| time (UTC) | temp F | wind direction | speed knots | gust knots | rain 1hr in | rain 24hr in | rain mn in | humidity % | barometer mb |
| 20260510195518 | 67 | 359 | 1.7 | 3.5 | 0.00 | 0.00 | 0.00 | 87 | 1017.2 |
| 20260510194516 | 67 | 355 | 2.6 | 3.5 | 0.00 | 0.00 | 0.00 | 86 | 1017.4 |
| 20260510193516 | 66 | 56 | 1.7 | 2.6 | 0.00 | 0.00 | 0.00 | 87 | 1017.3 |
| 20260510192526 | 66 | 280 | 0.9 | 1.7 | 0.00 | 0.00 | 0.00 | 86 | 1017.6 |
| 20260510191552 | 67 | 0.0 | 0.0 | 0.00 | 0.00 | 0.00 | 86 | 1017.5 | |
| 20260510190518 | 67 | 312 | 0.9 | 2.6 | 0.00 | 0.00 | 0.00 | 83 | 1017.5 |
| 20260510185524 | 68 | 241 | 0.9 | 1.7 | 0.00 | 0.00 | 0.00 | 81 | 1017.6 |
| 20260510184527 | 68 | 308 | 0.9 | 2.6 | 0.00 | 0.00 | 0.00 | 78 | 1017.3 |
| 20260510183533 | 68 | 274 | 1.7 | 3.5 | 0.00 | 0.00 | 0.00 | 78 | 1017.0 |
| 20260510182519 | 67 | 230 | 1.7 | 2.6 | 0.00 | 0.00 | 0.00 | 78 | 1017.1 |
| 20260510181524 | 68 | 243 | 1.7 | 2.6 | 0.00 | 0.00 | 0.00 | 78 | 1017.1 |
| 20260510180528 | 68 | 189 | 2.6 | 4.3 | 0.00 | 0.00 | 0.00 | 79 | 1017.1 |
| 20260510175516 | 67 | 245 | 1.7 | 1.7 | 0.00 | 0.00 | 0.00 | 80 | 1017.1 |
| 20260510174521 | 67 | 178 | 1.7 | 2.6 | 0.00 | 0.00 | 0.00 | 80 | 1017.3 |
| 20260510173525 | 67 | 236 | 1.7 | 3.5 | 0.00 | 0.00 | 0.00 | 81 | 1017.3 |
| 20260510172531 | 68 | 213 | 1.7 | 2.6 | 0.00 | 0.00 | 0.00 | 79 | 1017.3 |
| 20260510171516 | 67 | 230 | 1.7 | 3.5 | 0.00 | 0.00 | 0.00 | 80 | 1017.3 |
| 20260510170522 | 67 | 229 | 2.6 | 3.5 | 0.00 | 0.00 | 0.00 | 80 | 1017.3 |
| 20260510165526 | 67 | 236 | 1.7 | 2.6 | 0.00 | 0.00 | 0.00 | 81 | 1017.4 |
| 20260510164531 | 67 | 253 | 2.6 | 3.5 | 0.00 | 0.00 | 0.00 | 81 | 1017.2 |
| 20260510163539 | 66 | 177 | 2.6 | 4.3 | 0.00 | 0.00 | 0.00 | 82 | 1017.4 |
| 20260510162522 | 66 | 218 | 1.7 | 3.5 | 0.00 | 0.00 | 0.00 | 82 | 1017.4 |
| 20260510161527 | 66 | 205 | 2.6 | 3.5 | 0.00 | 0.00 | 0.00 | 82 | 1017.5 |
| 20260510160533 | 66 | 215 | 2.6 | 3.5 | 0.00 | 0.00 | 0.00 | 82 | 1017.6 |
| 20260510155519 | 67 | 233 | 3.5 | 5.2 | 0.00 | 0.01 | 0.00 | 80 | 1017.6 |
| 20260510154545 | 67 | 3.5 | 3.5 | 0.00 | 0.01 | 0.00 | 80 | 1017.4 | |
| 20260510153528 | 66 | 234 | 2.6 | 4.3 | 0.00 | 0.03 | 0.00 | 81 | 1017.6 |
| 20260510152515 | 66 | 230 | 3.5 | 5.2 | 0.00 | 0.03 | 0.00 | 81 | 1017.6 |
| 20260510151521 | 66 | 248 | 7.0 | 7.0 | 0.00 | 0.05 | 0.00 | 79 | 1017.5 |
| 20260510150545 | 66 | 250 | 3.5 | 6.1 | 0.00 | 0.07 | 0.00 | 83 | 1017.3 |
| 20260510145530 | 65 | 244 | 3.5 | 5.2 | 0.00 | 0.09 | 0.00 | 84 | 1016.9 |
| 20260510144516 | 65 | 254 | 3.5 | 5.2 | 0.00 | 0.09 | 0.00 | 83 | 1016.8 |
| 20260510143521 | 65 | 268 | 3.5 | 5.2 | 0.00 | 0.11 | 0.00 | 84 | 1016.5 |
| 20260510142527 | 64 | 261 | 4.3 | 5.2 | 0.00 | 0.13 | 0.00 | 84 | 1016.5 |
| 20260510141531 | 64 | 255 | 3.5 | 5.2 | 0.00 | 0.15 | 0.00 | 85 | 1016.5 |
| 20260510140517 | 63 | 225 | 2.6 | 4.3 | 0.00 | 0.16 | 0.00 | 86 | 1016.4 |
| 20260510135522 | 63 | 252 | 2.6 | 5.2 | 0.00 | 0.17 | 0.00 | 88 | 1016.4 |
| 20260510134527 | 62 | 250 | 1.7 | 3.5 | 0.00 | 0.18 | 0.00 | 87 | 1016.6 |
| 20260510133533 | 62 | 277 | 1.7 | 2.6 | 0.00 | 0.18 | 0.00 | 89 | 1016.5 |
| 20260510132518 | 61 | 257 | 1.7 | 2.6 | 0.00 | 0.18 | 0.00 | 91 | 1016.4 |
| 20260510131524 | 59 | 303 | 0.9 | 1.7 | 0.00 | 0.18 | 0.00 | 93 | 1016.5 |
| 20260510130528 | 58 | 195 | 0.9 | 2.6 | 0.00 | 0.18 | 0.00 | 94 | 1016.5 |
| 20260510125516 | 58 | 229 | 0.9 | 1.7 | 0.00 | 0.18 | 0.00 | 95 | 1016.3 |
| 20260510124520 | 57 | 241 | 0.9 | 1.7 | 0.00 | 0.18 | 0.00 | 98 | 1016.2 |
| 20260510123524 | 57 | 257 | 1.7 | 2.6 | 0.00 | 0.18 | 0.00 | 99 | 1016.1 |
| 20260510122529 | 56 | 191 | 1.7 | 2.6 | 0.00 | 0.19 | 0.00 | 98 | 1016.1 |
| 20260510121516 | 55 | 174 | 2.6 | 3.5 | 0.00 | 0.19 | 0.00 | 99 | 1016.2 |
| 20260510120522 | 54 | 184 | 1.7 | 2.6 | 0.00 | 0.19 | 0.00 | 99 | 1016.3 |
| 20260510115525 | 53 | 215 | 0.9 | 1.7 | 0.00 | 0.19 | 0.00 | 99 | 1016.5 |
| 20260510114531 | 52 | 308 | 0.9 | 2.6 | 0.00 | 0.19 | 0.00 | 99 | 1016.1 |
| 20260510113518 | 51 | 315 | 0.9 | 2.6 | 0.00 | 0.19 | 0.00 | 99 | 1015.6 |
| 20260510112522 | 50 | 0.0 | 0.0 | 0.00 | 0.19 | 0.00 | 99 | 1015.6 | |
| 20260510111526 | 50 | 0.0 | 0.0 | 0.00 | 0.19 | 0.00 | 99 | 1015.5 | |
| 20260510110526 | 50 | 0.0 | 0.0 | 0.00 | 0.19 | 0.00 | 99 | 1015.3 | |
| 20260510105518 | 50 | 0.0 | 0.0 | 0.00 | 0.19 | 0.00 | 99 | 1015.2 | |
| 20260510104523 | 50 | 0.0 | 0.0 | 0.00 | 0.19 | 0.00 | 99 | 1015.1 | |
| 20260510103521 | 50 | 176 | 0.9 | 1.7 | 0.00 | 0.19 | 0.00 | 99 | 1015.0 |
| 20260510102521 | 50 | 235 | 0.9 | 2.6 | 0.00 | 0.19 | 0.00 | 99 | 1014.7 |
| 20260510101519 | 50 | 312 | 1.7 | 2.6 | 0.00 | 0.19 | 0.00 | 99 | 1014.4 |
| 20260510100518 | 51 | 172 | 0.9 | 1.7 | 0.00 | 0.19 | 0.00 | 99 | 1014.2 |
| 20260510095516 | 51 | 122 | 0.0 | 1.7 | 0.00 | 0.19 | 0.00 | 99 | 1014.2 |
| 20260510094515 | 52 | 158 | 1.7 | 2.6 | 0.00 | 0.19 | 0.00 | 99 | 1014.5 |
| 20260510093520 | 52 | 183 | 1.7 | 2.6 | 0.00 | 0.19 | 0.00 | 99 | 1014.5 |
| 20260510092525 | 52 | 169 | 2.6 | 3.5 | 0.00 | 0.19 | 0.00 | 99 | 1014.6 |
| 20260510091550 | 52 | 166 | 2.6 | 4.3 | 0.00 | 0.19 | 0.00 | 99 | 1014.7 |
| 20260510090516 | 52 | 158 | 2.6 | 4.3 | 0.00 | 0.19 | 0.00 | 99 | 1014.9 |
| 20260510085541 | 51 | 176 | 2.6 | 4.3 | 0.00 | 0.19 | 0.00 | 99 | 1015.5 |
| 20260510084526 | 51 | 176 | 1.7 | 2.6 | 0.00 | 0.19 | 0.00 | 99 | 1015.7 |
| 20260510083530 | 51 | 270 | 0.9 | 3.5 | 0.00 | 0.19 | 0.00 | 99 | 1015.2 |
| 20260510082517 | 51 | 1 | 3.5 | 6.1 | 0.00 | 0.19 | 0.00 | 99 | 1014.2 |
| 20260510081542 | 50 | 326 | 1.7 | 3.5 | 0.00 | 0.19 | 0.00 | 99 | 1013.9 |
| 20260510080547 | 50 | 293 | 0.0 | 1.7 | 0.00 | 0.19 | 0.00 | 99 | 1013.7 |
| 20260510075532 | 51 | 0.0 | 0.0 | 0.00 | 0.19 | 0.00 | 99 | 1013.7 | |
| 20260510074518 | 51 | 164 | 0.9 | 2.6 | 0.00 | 0.19 | 0.00 | 99 | 1013.7 |
| 20260510073544 | 51 | 164 | 1.7 | 1.7 | 0.00 | 0.19 | 0.00 | 99 | 1013.7 |
| 20260510072548 | 51 | 180 | 1.7 | 1.7 | 0.00 | 0.19 | 0.00 | 99 | 1013.6 |
| 20260510071532 | 51 | 180 | 0.9 | 1.7 | 0.00 | 0.19 | 0.00 | 99 | 1013.6 |
| 20260510070519 | 51 | 180 | 0.9 | 3.5 | 0.00 | 0.19 | 0.00 | 99 | 1013.7 |
| 20260510065544 | 50 | 187 | 1.7 | 3.5 | 0.00 | 0.19 | 0.00 | 99 | 1013.9 |
| 20260510064529 | 50 | 169 | 2.6 | 4.3 | 0.00 | 0.19 | 0.00 | 99 | 1014.2 |
| 20260510063515 | 49 | 171 | 1.7 | 2.6 | 0.00 | 0.19 | 0.00 | 99 | 1014.4 |
| 20260510062520 | 48 | 175 | 0.9 | 2.6 | 0.00 | 0.19 | 0.00 | 99 | 1014.6 |
| 20260510061525 | 49 | 0.0 | 0.0 | 0.00 | 0.19 | 0.00 | 99 | 1014.8 | |
| 20260510060530 | 49 | 179 | 1.7 | 1.7 | 0.00 | 0.19 | 0.00 | 99 | 1015.1 |
| 20260510055518 | 48 | 176 | 1.7 | 2.6 | 0.00 | 0.19 | 0.00 | 99 | 1014.9 |
| 20260510054521 | 48 | 347 | 3.5 | 9.6 | 0.00 | 0.19 | 0.00 | 99 | 1014.2 |
| 20260510053607 | 46 | 180 | 0.9 | 1.7 | 0.00 | 0.19 | 0.00 | 99 | 1014.4 |
| 20260510052531 | 46 | 163 | 1.7 | 2.6 | 0.00 | 0.19 | 0.00 | 99 | 1014.5 |
| 20260510051518 | 45 | 180 | 0.9 | 2.6 | 0.00 | 0.19 | 0.00 | 99 | 1014.4 |
| 20260510050523 | 45 | 0.0 | 0.0 | 0.00 | 0.19 | 0.00 | 99 | 1014.2 | |
| 20260510045527 | 45 | 0.0 | 0.0 | 0.00 | 0.19 | 0.00 | 99 | 1014.0 | |
| 20260510044532 | 45 | 0.0 | 0.0 | 0.00 | 0.19 | 0.00 | 99 | 1014.0 | |
| 20260510043519 | 45 | 264 | 0.9 | 2.6 | 0.00 | 0.19 | 0.00 | 99 | 1013.7 |
| 20260510042545 | 45 | 0.0 | 0.0 | 0.00 | 0.19 | 0.00 | 99 | 1013.7 | |
| 20260510041529 | 46 | 0.0 | 0.0 | 0.00 | 0.19 | 0.00 | 99 | 1013.7 | |
| 20260510040515 | 46 | 0.0 | 0.0 | 0.00 | 0.19 | 0.00 | 99 | 1013.6 | |
| 20260510035520 | 47 | 0.0 | 0.0 | 0.00 | 0.19 | 0.19 | 99 | 1013.5 | |
| 20260510034525 | 47 | 0.0 | 0.0 | 0.00 | 0.19 | 0.19 | 99 | 1013.5 | |
| 20260510033529 | 47 | 0.0 | 0.0 | 0.00 | 0.19 | 0.19 | 99 | 1013.5 | |
| 20260510032516 | 48 | 0.0 | 0.0 | 0.00 | 0.19 | 0.19 | 99 | 1013.7 | |
| 20260510031521 | 48 | 0.0 | 0.0 | 0.00 | 0.19 | 0.19 | 99 | 1013.7 | |
| 20260510030526 | 48 | 0.0 | 0.0 | 0.00 | 0.19 | 0.19 | 99 | 1013.7 | |
| 20260510025545 | 48 | 0.0 | 0.0 | 0.00 | 0.19 | 0.19 | 99 | 1013.7 | |
| 20260510024517 | 48 | 0.0 | 0.0 | 0.00 | 0.19 | 0.19 | 99 | 1013.7 | |
| 20260510023521 | 49 | 166 | 0.9 | 1.7 | 0.00 | 0.19 | 0.19 | 99 | 1013.7 |
| 20260510022520 | 49 | 146 | 0.9 | 1.7 | 0.00 | 0.19 | 0.19 | 99 | 1013.7 |
| 20260510021519 | 49 | 169 | 0.9 | 1.7 | 0.00 | 0.19 | 0.19 | 99 | 1013.6 |
| 20260510020539 | 49 | 0.0 | 0.9 | 0.00 | 0.19 | 0.19 | 99 | 1013.5 | |
| 20260510015537 | 50 | 0.0 | 0.0 | 0.00 | 0.19 | 0.19 | 99 | 1013.5 | |
| 20260510014517 | 50 | 0.0 | 0.0 | 0.00 | 0.19 | 0.19 | 99 | 1013.2 | |
| 20260510013532 | 51 | 180 | 0.0 | 0.9 | 0.00 | 0.19 | 0.19 | 99 | 1013.0 |
| 20260510012540 | 51 | 170 | 0.9 | 2.6 | 0.00 | 0.19 | 0.19 | 99 | 1013.0 |
| 20260510011524 | 51 | 0.0 | 0.0 | 0.00 | 0.19 | 0.19 | 99 | 1012.8 | |
| 20260510010529 | 52 | 0.0 | 0.0 | 0.00 | 0.19 | 0.19 | 99 | 1012.7 | |
| 20260510005515 | 53 | 0.0 | 0.0 | 0.00 | 0.19 | 0.19 | 99 | 1012.5 | |
| 20260510004540 | 54 | 0.0 | 0.0 | 0.00 | 0.19 | 0.19 | 99 | 1012.4 | |
| 20260510003525 | 55 | 0.0 | 0.0 | 0.00 | 0.19 | 0.19 | 99 | 1012.4 | |
| 20260510002530 | 56 | 0.0 | 0.0 | 0.00 | 0.19 | 0.19 | 96 | 1012.3 | |
| 20260510001536 | 58 | 0.0 | 0.0 | 0.00 | 0.19 | 0.19 | 93 | 1012.3 | |
| 20260510000521 | 59 | 0.0 | 0.0 | 0.00 | 0.19 | 0.19 | 92 | 1012.3 | |
| 20260509235527 | 61 | 0.0 | 0.0 | 0.00 | 0.19 | 0.19 | 89 | 1012.2 | |
| 20260509234531 | 63 | 0.0 | 0.0 | 0.00 | 0.19 | 0.19 | 87 | 1011.9 | |
| 20260509233517 | 65 | 0.0 | 0.0 | 0.00 | 0.19 | 0.19 | 83 | 1012.0 | |
| 20260509232543 | 67 | 0.0 | 0.0 | 0.00 | 0.19 | 0.19 | 80 | 1012.1 | |
| 20260509231546 | 68 | 270 | 0.0 | 0.9 | 0.00 | 0.19 | 0.19 | 74 | 1012.2 |
| 20260509230531 | 70 | 317 | 0.9 | 2.6 | 0.00 | 0.19 | 0.19 | 72 | 1012.2 |
| 20260509225519 | 71 | 340 | 0.9 | 2.6 | 0.00 | 0.19 | 0.19 | 70 | 1012.1 |
| 20260509224523 | 72 | 312 | 1.7 | 2.6 | 0.00 | 0.19 | 0.19 | 70 | 1012.1 |
| 20260509223548 | 71 | 236 | 0.9 | 1.7 | 0.00 | 0.19 | 0.19 | 72 | 1012.0 |
| 20260509222534 | 71 | 252 | 1.7 | 2.6 | 0.00 | 0.19 | 0.19 | 70 | 1012.1 |
| 20260509221520 | 71 | 251 | 1.7 | 2.6 | 0.00 | 0.19 | 0.19 | 71 | 1012.1 |
| 20260509220524 | 68 | 229 | 2.6 | 3.5 | 0.00 | 0.19 | 0.19 | 75 | 1012.1 |
| 20260509215529 | 63 | 150 | 1.7 | 2.6 | 0.00 | 0.19 | 0.19 | 83 | 1012.3 |
| 20260509214515 | 64 | 318 | 1.7 | 2.6 | 0.00 | 0.19 | 0.19 | 81 | 1012.3 |
| 20260509213521 | 62 | 43 | 1.7 | 2.6 | 0.00 | 0.19 | 0.19 | 86 | 1012.4 |
| 20260509212526 | 61 | 82 | 0.9 | 1.7 | 0.00 | 0.19 | 0.19 | 86 | 1012.5 |
| 20260509211530 | 61 | 74 | 0.9 | 1.7 | 0.00 | 0.19 | 0.19 | 88 | 1012.6 |
| 20260509210517 | 60 | 196 | 0.9 | 2.6 | 0.00 | 0.19 | 0.19 | 88 | 1012.8 |
| 20260509205522 | 61 | 242 | 0.9 | 1.7 | 0.00 | 0.19 | 0.19 | 86 | 1013.0 |
| 20260509204526 | 60 | 259 | 1.7 | 2.6 | 0.00 | 0.19 | 0.19 | 90 | 1013.0 |
| 20260509203551 | 60 | 65 | 0.9 | 1.7 | 0.00 | 0.19 | 0.19 | 89 | 1013.0 |
| 20260509202537 | 60 | 143 | 0.9 | 2.6 | 0.00 | 0.19 | 0.19 | 90 | 1013.1 |
| 20260509201522 | 60 | 87 | 0.9 | 1.7 | 0.00 | 0.19 | 0.19 | 91 | 1013.2 |
| 20260509200527 | 59 | 330 | 1.7 | 2.6 | 0.00 | 0.19 | 0.19 | 91 | 1013.2 |